#timestamp,LO_Frequency,Hit,StdDev 
1456268415.6,286046997.7,N
1456268435.4,286046997.9,N
1456268455.2,286046995.5,N
1456268475.1,286046999.1,N
1456268476.0,286046999.1,N
1456268495.8,286046993.5,N
1456268515.6,286046991.3,N
1456268535.5,286046997.5,N
1456268555.3,286046997.7,N
1456268575.1,286046996.5,N
1456268595.9,286046993.5,N
1456268615.7,286046997.7,N
1456268635.5,286046992.1,N
1456268655.4,286046987.2,Y
1456268675.2,286046987.6,P
1456268695.0,286046988.4,N
1456268695.9,286046988.4,N
1456268715.8,286046989.9,N
1456268735.6,286046985.3,Y
1456268755.4,286046995.2,P
1456268775.3,286046992.1,P
1456268795.1,286046994.3,N
1456268796.0,286046994.3,Y
1456268815.8,286046998.8,P
1456268835.7,286046999.4,N
1456268855.5,286046999.3,N
1456268875.3,286046997.0,N
1456268895.2,286046999.6,N
1456268915.9,286047000.8,N
1456268935.7,286046999.9,N
1456268955.6,286047001.8,N
1456268975.4,286047003.9,N
1456268995.2,286047003.0,N
1456269015.1,286047009.0,Y
1456269016.0,286047009.0,P
1456269035.8,286047007.1,N
1456269055.6,286047007.7,N
1456269075.5,286047011.3,Y
1456269095.3,286047007.5,P
1456269115.1,286047007.2,P
1456269135.9,286047007.6,P
1456269155.7,286047007.5,Y
1456269175.5,286046998.4,P
1456269195.4,286047000.3,N
1456269215.2,286047001.2,N
1456269235.0,286046998.5,N
1456269235.9,286046998.5,N
1456269255.7,286046998.8,N
1456269275.6,286046999.1,N
1456269295.4,286046999.5,N
1456269315.2,286046999.6,N
1456269335.1,286046996.5,N
1456269336.0,286046996.5,N
1456269355.8,286046996.2,N
1456269375.6,286046995.0,N
1456269395.5,286046997.0,N
1456269415.3,286046999.5,N
1456269435.1,286047001.2,N
1456269455.9,286047000.4,N
1456269475.7,286047003.7,N
1456269495.5,286047002.6,N
1456269515.4,286047001.7,N
1456269535.2,286047009.0,Y
1456269555.0,286047006.8,P
1456269555.9,286047006.8,N
1456269575.8,286047003.1,N
1456269595.6,286047002.0,N
1456269615.4,286047005.5,N
1456269635.3,286047002.5,N
1456269655.1,286047000.3,N
1456269656.0,286047000.3,N
1456269675.8,286047000.5,N
1456269695.7,286046999.8,N
1456269715.5,286046998.9,N
1456269735.3,286047001.0,N
1456269755.1,286046996.6,N
1456269775.9,286046996.6,N
1456269795.7,286046999.5,N
1456269815.5,286046993.8,N
1456269835.4,286046995.9,N
1456269855.2,286046995.8,N
1456269875.0,286046993.3,N
1456269875.9,286046993.3,N
1456269895.8,286046993.3,N
1456269915.6,286046994.7,N
1456269935.4,286046991.8,N
1456269955.3,286046992.6,N
1456269975.1,286046993.8,N
1456269976.0,286046993.8,N
1456269995.8,286046997.3,N
1456270015.7,286046996.3,N
1456270035.5,286046995.5,N
1456270055.3,286046996.2,N
1456270075.2,286046993.3,N
1456270095.9,286046994.9,N
1456270115.7,286046994.7,N
1456270135.5,286046996.3,N
1456270155.4,286046993.7,N
1456270175.2,286046994.3,N
1456270195.0,286046992.6,N
1456270195.9,286046992.6,N
1456270215.8,286046992.2,Y
1456270235.6,286046999.5,P
1456270255.4,286047000.5,N
1456270275.3,286047002.0,N
1456270295.1,286047001.7,N
1456270315.8,286047001.9,N
1456270335.7,286046998.5,N
1456270355.5,286047001.2,N
1456270375.3,286047000.0,N
1456270395.2,286047002.7,N
1456270415.9,286046999.3,N
1456270435.7,286046998.5,N
1456270455.5,286047001.9,N
1456270475.4,286047002.2,N
1456270495.2,286047002.4,N
1456270515.0,286047004.4,N
1456270515.9,286047004.4,N
1456270535.8,286047001.6,N
1456270555.6,286047003.8,N
1456270575.4,286047001.5,N
1456270595.3,286047001.6,N
1456270615.1,286047000.5,N
1456270616.0,286047000.5,N
1456270635.8,286047000.0,N
1456270655.7,286047001.4,N
1456270675.5,286047004.7,N
1456270695.3,286047003.2,N
1456270715.2,286047009.2,Y
1456270735.9,286047010.5,P
1456270755.7,286047005.8,N
1456270775.6,286047003.4,N
1456270795.4,286047005.9,N
1456270815.2,286047005.8,N
1456270835.0,286047006.0,N
1456270836.0,286047006.0,N
1456270855.8,286047001.8,N
1456270875.6,286047003.8,N
1456270895.4,286047001.6,N
1456270915.3,286047004.5,N
1456270935.1,286047006.2,N
1456270955.8,286047008.7,Y
1456270975.7,286047002.8,P
1456270995.5,286046998.9,N
1456271015.3,286047000.0,N
1456271035.2,286047001.4,N
1456271055.9,286047002.7,N
1456271075.7,286046997.5,N
1456271095.6,286047001.0,N
1456271115.4,286046997.3,N
1456271135.2,286046999.0,N
1456271155.1,286046997.8,N
1456271156.0,286046997.8,N
1456271175.8,286046994.2,N
1456271195.6,286046993.3,N
1456271215.4,286046995.4,N
1456271235.3,286046995.4,N
1456271255.1,286047000.6,N
1456271275.8,286046996.0,N
1456271295.7,286046993.6,N
1456271315.5,286046992.1,N
1456271335.3,286046993.9,N
1456271355.2,286046992.8,N
1456271375.9,286046990.3,N
1456271395.7,286046988.7,Y
1456271415.6,286046990.8,P
1456271435.4,286046992.4,N
1456271455.2,286046994.2,N
1456271475.1,286046994.5,N
1456271476.0,286046994.5,N
1456271495.8,286046994.0,N
1456271515.6,286046995.5,N
1456271535.5,286046992.6,Y
1456271555.3,286046997.2,P
1456271575.1,286046999.2,N
1456271595.9,286046999.0,N
1456271615.7,286047001.1,N
1456271635.5,286046999.6,N
1456271655.3,286046997.3,N
1456271675.2,286046995.1,N
1456271695.0,286046997.2,N
1456271695.9,286046997.2,N
1456271715.7,286046994.9,N
1456271735.6,286046998.2,N
1456271755.4,286046997.9,N
1456271775.2,286046999.9,N
1456271795.1,286047002.0,N
1456271796.0,286047002.0,N
1456271815.8,286047002.3,N
1456271835.6,286047002.5,N
1456271855.5,286047001.7,N
1456271875.3,286046999.8,N
1456271895.1,286047002.0,N
1456271915.9,286047004.3,N
1456271935.7,286047001.4,N
1456271955.5,286047004.0,N
1456271975.3,286047004.6,N
1456271995.2,286047005.9,N
